Regional Weather Roundup
Issued by NWS

Home | Current Version | Previous Version | Text Only | Print | Product List | Glossary Off
Versions: 1 2 3 4 5 6 7 8 9 10 11 12 13 14 15 16 17 18 19 20 21 22 23 24 25 26 27 28 29 30 31 32 33 34 35 36 37 38 39 40 41 42 43 44 45 46 47 48 49 50

000
ASUS43 KDTX 232010
RWRMI
MICHIGAN HOURLY REGIONAL WEATHER ROUNDUP
NATIONAL WEATHER SERVICE DETROIT/PONTIAC MI
300 PM EST FRI FEB 23 2018

NOTE: "FAIR" INDICATES FEW OR NO CLOUDS BELOW 12,000 FEET WITH NO
SIGNIFICANT WEATHER AND/OR OBSTRUCTION TO VISIBILITY.

MIZ047>049-052>055-059>063-066>070-074>076-081>083-232100-
SOUTHEAST LOWER MICHIGAN

CITY           SKY/WX    TMP DP  RH WIND       PRES   REMARKS
ADRIAN         CLOUDY    48  45  89 W13       30.12R
ALMA           CLOUDY    42  42  99 W13G21    30.07R
ANN ARBOR      CLOUDY    48  45  89 SW16      30.09R
BAD AXE        CLOUDY    41  41 100 W14G22    30.02S
CARO           CLOUDY    44  42  94 W16G23    30.04R
DETROIT CITY   CLOUDY    48  44  86 W12       30.07S
DETROIT        CLOUDY    49  46  90 SW12      30.09R
FLINT          CLOUDY    45  42  89 W16G22    30.07R
GROSSE ILE     CLOUDY    48  46  90 W9G17     30.08R
HILLSDALE      CLOUDY    45  43  93 W15G21    30.11R FOG
HOWELL         CLOUDY    45  43  94 W16G24    30.08R

CITY           SKY/WX    TMP DP  RH WIND       PRES   REMARKS
JACKSON        CLOUDY    45  43  93 SW15      30.10S
LAMBERTVILLE   CLOUDY    49  46  88 W10G16    30.12R
LANSING        CLOUDY    44  42  93 W18G28    30.10R
LAPEER         CLOUDY    46  44  92 W12G20    30.05R
MASON          CLOUDY    46  41  83 W9        30.10R
MONROE         CLOUDY    49  46  89 W17       30.09R
MT. CLEMENS    CLOUDY    47  47 100 W10G22    30.04S
PONTIAC        CLOUDY    46  44  93 W18G25    30.05R
PORT HOPE        N/A     41  39  93 W10G18    29.99S
PORT HURON     CLOUDY    45  41  87 SW5       30.05S FOG
TRI CITIES     CLOUDY    42  40  92 W12       30.05S
MIDLAND        CLOUDY    43  41  92 SW10      30.04S
TROY           CLOUDY    48  45  88 W13       30.08R
SAGINAW HB     CLOUDY    43  41  93 W16       30.05S
$$
MIZ043>046-050>051-056>058-064>065-071>073-077>080-232100-
SOUTHWEST LOWER MICHIGAN

CITY           SKY/WX    TMP DP  RH WIND       PRES   REMARKS
BATTLE CREEK   CLOUDY    44  42  93 W16G23    30.13R
BENTON HARBOR  CLOUDY    40  37  89 W14       30.19R WCI  32
BIG RAPIDS     CLOUDY    38  35  89 W14G22    30.06R WCI  30
COLDWATER      CLOUDY    45  45 100 W10G20    30.14R FOG
FREMONT        CLOUDY    39  35  84 W8        30.10R WCI  34
HOLLAND        CLOUDY    41  38  89 W15       30.15R
GRAND RAPIDS   CLOUDY    42  40  92 W20G26    30.11R FOG
IONIA          CLOUDY    42  41  95 W15G24    30.09R
KALAMAZOO      CLOUDY    44  41  89 W14G21    30.15R FOG
LUDINGTON      PTSUNNY   38  34  86 W9        30.09R WCI  32
MARSHALL       CLOUDY    44  43  98 W13G20    30.12R
MOUNT PLEASANT CLOUDY    43  40  89 W15G21    30.04R
MUSKEGON       CLOUDY    40  37  89 W9        30.13R FOG     WCI  34
SOUTH HAVEN    CLOUDY    40  38  91 W9        30.17R WCI  34
$$
MIZ016>042-232100-
NORTHERN LOWER MICHIGAN

CITY           SKY/WX    TMP DP  RH WIND       PRES   REMARKS
ALPENA         CLOUDY    43  37  79 W10G21    29.97R
BEAVER ISLAND  CLOUDY    36  35  94 SW14G21   29.98R WCI  27
BELLAIRE       CLOUDY    37  37  98 SW7       30.01S WCI  32
CADILLAC       CLOUDY    36  36  99 W10G23    30.01R WCI  28
CHARLEVOIX     CLOUDY    38  38 100 SW17      30.02R WCI  28
FRANKFORT      CLOUDY    38  37  94 SW10      30.05S WCI  32
GAYLORD        CLOUDY    36  36 100 W15G26    29.96S FOG     WCI  27
GRAYLING       CLOUDY    38  37  95 W9        29.98R FOG     WCI  32
HARBOR SPRINGS CLOUDY    36  35  99 SW13G20   29.98R WCI  27
HOUGHTON LAKE  CLOUDY    38  36  92 W12       30.00R WCI  30
MANISTEE       CLOUDY    38  34  85 SW10G18   30.07R WCI  31
OSCODA         CLOUDY    41  38  88 W13G20    29.99R
PELLSTON       CLOUDY    37  34  89 W13G26    29.97R WCI  29
ROGERS CITY    CLOUDY    40  37  89 W8G16     29.97S FOG     WCI  34
TRAVERSE CITY  CLOUDY    40  35  83 SW9G17    30.01S WCI  34
$$
MIZ007>008-015-232100-
EASTERN UPPER MICHIGAN

CITY           SKY/WX    TMP DP  RH WIND       PRES   REMARKS
KINROSS        CLOUDY    36  34  93 SW8       29.93F FOG     WCI  29
MACKINAC ISLAN CLOUDY    34  34 100 SW13G20   29.95S FOG     WCI  25
NEWBERRY       CLOUDY    34  33  96 W10       29.94R WCI  26
S. S. MARIE    CLOUDY    36  34  92 W8        29.92F WCI  30
MUNISING         N/A     37  31  78 SW3       29.96R
$$
MIZ004>006-011>014-085-232100-
CENTRAL UPPER MICHIGAN

CITY           SKY/WX    TMP DP  RH WIND       PRES   REMARKS
MANISTIQUE     CLOUDY    35  34  94 W7        29.97R WCI  30
ESCANABA       CLOUDY    38  32  79 W12       29.99R WCI  30
MENOMINEE      CLOUDY    39  32  76 W9        30.02S WCI  33
SAWYER-GWINN   CLOUDY    34  28  80 W10       29.95R WCI  26
$$
MIZ001>003-009>011-084-232100-
WESTERN UPPER MICHIGAN

CITY           SKY/WX    TMP DP  RH WIND       PRES   REMARKS
IRON MOUNTAIN  CLOUDY    35  29  78 W12G20    29.97R WCI  27
HOUGHTON       LGT SNOW  29  24  82 W17       29.97R WCI  17
COPPER HARBOR    N/A     31  26  82 NW16G24   29.96R WCI  20
IRONWOOD       CLOUDY    30  23  75 W14       30.05R WCI  19
$$

ABBREVIATIONS USED IN REMARKS
   TC - TEMPERATURE IN CELSIUS
  WCI - WIND CHILL INDEX
   HX - HEAT INDEX
  VSB - VISIBILITY





USA.gov is the U.S. government's official web portal to all federal, state and local government web resources and services.